Temp
-16 -16 -16 -16 -16 -16 -15 -15 -15 -15 -14 -15 -14 -14 -14 -14 -14 -14 -14 -14 -14 -14 -13 -13 -14 -14 -13 -13 -13 -14 -14 -14 -14 -14 -14 -14 -14 -14 -15 -15 -16 -16 -17 -17 -18 -18 -18 -18 -19 -20 -20 -21 -21 -22
-16 -16 -16 -16 -17 -16 -16 -16 -15 -15 -15 -15 -15 -15 -15 -15 -15 -15 -14 -15 -15 -14 -14 -14 -13 -13 -14 -14 -14 -14 -14 -14 -14 -15 -15 -15 -15 -15 -15 -16 -17 -17 -18 -18 -19 -19 -20 -20 -20 -20 -21 -21 -22 -23
-18 -17 -16 -16 -17 -16 -16 -16 -15 -15 -15 -15 -15 -15 -15 -15 -15 -15 -15 -15 -15 -15 -14 -14 -14 -14 -14 -14 -14 -15 -15 -15 -15 -15 -15 -16 -16 -16 -16 -16 -17 -18 -18 -18 -18 -19 -20 -20 -21 -21 -22 -22 -23 -23
-18 -18 -17 -17 -17 -16 -16 -16 -16 -16 -15 -15 -15 -15 -15 -15 -15 -15 -15 -15 -15 -15 -15 -14 -14 -14 -15 -14 -15 -15 -15 -16 -16 -16 -16 -16 -16 -16 -17 -17 -18 -19 -19 -19 -19 -20 -20 -21 -21 -22 -22 -23 -23 -24
-19 -18 -18 -18 -18 -17 -17 -16 -16 -16 -16 -16 -16 -15 -15 -15 -15 -15 -15 -15 -15 -16 -15 -15 -14 -14 -15 -15 -15 -16 -16 -16 -17 -17 -17 -17 -17 -18 -18 -17 -19 -19 -20 -20 -20 -20 -21 -22 -22 -22 -23 -23 -24 -24
-19 -19 -19 -19 -18 -17 -17 -17 -17 -16 -16 -16 -16 -16 -16 -16 -16 -15 -15 -15 -15 -15 -15 -14 -15 -15 -15 -15 -15 -16 -17 -17 -17 -17 -17 -18 -19 -19 -18 -18 -20 -20 -20 -20 -21 -21 -22 -22 -23 -23 -23 -24 -24 -24
-20 -19 -19 -19 -19 -19 -19 -18 -17 -17 -17 -16 -16 -16 -16 -16 -16 -16 -16 -16 -17 -17 -16 -16 -15 -15 -16 -16 -16 -17 -17 -18 -18 -18 -18 -18 -19 -19 -19 -20 -21 -20 -21 -22 -22 -22 -23 -23 -23 -24 -24 -25 -25 -25
-20 -20 -20 -19 -19 -19 -19 -19 -19 -18 -18 -18 -17 -17 -17 -17 -17 -17 -17 -17 -17 -18 -17 -17 -16 -17 -16 -17 -17 -18 -18 -18 -18 -18 -19 -19 -19 -20 -20 -21 -21 -22 -22 -22 -23 -24 -24 -24 -24 -25 -25 -25 -25 -26
-22 -21 -22 -21 -19 -19 -19 -19 -19 -19 -19 -19 -18 -18 -18 -18 -18 -18 -18 -18 -18 -18 -17 -17 -17 -18 -18 -18 -19 -19 -19 -19 -19 -19 -20 -20 -20 -21 -22 -22 -22 -23 -23 -23 -24 -25 -24 -25 -25 -25 -25 -25 -26 -26
-23 -23 -24 -23 -21 -20 -19 -19 -20 -19 -19 -19 -19 -19 -19 -19 -19 -19 -19 -19 -19 -19 -18 -18 -19 -18 -19 -19 -20 -20 -20 -21 -19 -19 -20 -20 -21 -23 -23 -23 -23 -23 -24 -25 -25 -25 -25 -25 -25 -26 -26 -26 -26 -27
-24 -23 -24 -25 -24 -23 -21 -21 -20 -20 -20 -19 -20 -20 -20 -19 -19 -19 -19 -19 -18 -18 -18 -18 -19 -19 -20 -21 -22 -22 -22 -22 -21 -21 -22 -21 -22 -23 -23 -24 -24 -25 -26 -25 -25 -26 -25 -25 -26 -26 -27 -27 -27 -27
-26 -25 -24 -24 -26 -25 -26 -24 -21 -20 -20 -20 -20 -20 -20 -21 -20 -20 -19 -19 -19 -19 -20 -21 -21 -22 -22 -22 -23 -23 -23 -23 -23 -23 -23 -23 -24 -24 -24 -25 -26 -26 -26 -26 -26 -26 -26 -26 -27 -27 -27 -27 -27 -27
-27 -27 -26 -25 -25 -26 -25 -25 -26 -26 -22 -21 -21 -21 -21 -21 -20 -20 -20 -20 -21 -21 -22 -22 -22 -22 -22 -23 -24 -24 -24 -24 -24 -24 -24 -25 -26 -26 -26 -26 -26 -26 -26 -26 -26 -26 -26 -27 -27 -27 -27 -27 -27 -27
-28 -28 -29 -29 -28 -27 -27 -27 -28 -28 -26 -26 -25 -23 -23 -23 -21 -20 -21 -21 -22 -22 -23 -24 -24 -25 -25 -25 -25 -26 -25 -25 -25 -25 -26 -27 -27 -27 -27 -27 -27 -26 -26 -26 -26 -27 -27 -27 -27 -27 -27 -27 -27 -27
-29 -29 -29 -29 -29 -28 -28 -28 -28 -28 -28 -28 -27 -26 -25 -25 -24 -24 -24 -24 -25 -25 -25 -26 -26 -27 -27 -27 -27 -26 -26 -26 -26 -27 -27 -27 -27 -27 -27 -27 -26 -26 -26 -26 -27 -27 -27 -27 -27 -27 -27 -27 -27 -28
-30 -30 -30 -29 -29 -29 -29 -29 -29 -29 -29 -29 -28 -27 -27 -27 -27 -27 -26 -26 -26 -26 -27 -27 -27 -27 -27 -27 -27 -27 -27 -27 -28 -28 -27 -27 -27 -27 -27 -27 -26 -26 -27 -27 -28 -28 -28 -28 -28 -28 -28 -28 -28 -28
-30 -29 -30 -31 -30 -30 -30 -29 -29 -29 -29 -29 -28 -28 -28 -28 -28 -28 -28 -28 -28 -28 -28 -28 -28 -28 -28 -28 -27 -27 -28 -28 -28 -28 -28 -27 -27 -27 -27 -27 -27 -27 -28 -28 -28 -28 -28 -28 -28 -28 -28 -28 -29 -29
-31 -31 -31 -31 -30 -30 -30 -30 -29 -29 -29 -29 -30 -30 -30 -30 -30 -30 -30 -29 -29 -29 -28 -28 -28 -28 -28 -28 -28 -28 -28 -28 -28 -28 -28 -27 -27 -27 -27 -27 -28 -28 -28 -28 -28 -28 -28 -28 -28 -28 -29 -29 -30 -31
-31 -31 -31 -31 -31 -31 -31 -30 -30 -30 -30 -30 -31 -31 -31 -30 -30 -30 -30 -29 -29 -28 -28 -28 -28 -28 -28 -28 -28 -28 -28 -28 -28 -28 -28 -28 -28 -28 -28 -28 -28 -28 -28 -28 -28 -28 -28 -28 -29 -29 -29 -30 -31 -32
-31 -31 -31 -31 -31 -31 -31 -31 -31 -31 -31 -31 -31 -31 -31 -30 -30 -30 -30 -29 -29 -29 -29 -28 -28 -29 -29 -29 -29 -28 -28 -28 -28 -28 -28 -28 -28 -28 -28 -28 -28 -29 -29 -29 -29 -29 -29 -29 -29 -30 -31 -32 -32 -33
-31 -31 -31 -31 -31 -31 -31 -31 -31 -31 -31 -31 -31 -31 -30 -30 -30 -30 -30 -29 -29 -29 -29 -29 -29 -29 -28 -28 -28 -28 -28 -28 -28 -28 -28 -28 -28 -28 -28 -29 -29 -29 -29 -29 -29 -29 -29 -29 -30 -31 -32 -33 -33 -34
-31 -31 -31 -31 -31 -31 -31 -30 -30 -31 -31 -31 -31 -31 -30 -30 -30 -30 -30 -30 -29 -29 -29 -30 -29 -29 -29 -29 -28 -28 -28 -28 -28 -28 -28 -28 -28 -29 -29 -29 -29 -29 -29 -29 -29 -29 -30 -30 -31 -32 -33 -34 -34 -34
-31 -31 -31 -31 -30 -30 -30 -30 -30 -30 -30 -30 -30 -30 -30 -30 -30 -30 -29 -29 -30 -30 -29 -29 -29 -29 -29 -29 -28 -28 -28 -29 -29 -29 -29 -29 -29 -29 -30 -30 -30 -29 -29 -30 -30 -30 -31 -32 -33 -33 -34 -34 -35 -35
-30 -30 -31 -30 -30 -30 -30 -30 -30 -30 -30 -30 -30 -29 -29 -29 -30 -30 -29 -29 -29 -29 -29 -29 -29 -29 -28 -28 -29 -29 -29 -29 -29 -29 -29 -29 -30 -30 -30 -30 -30 -30 -30 -30 -31 -32 -32 -33 -34 -34 -35 -35 -35 -35
-30 -30 -30 -29 -29 -29 -29 -29 -30 -30 -30 -29 -29 -29 -29 -29 -29 -29 -29 -29 -29 -29 -29 -29 -29 -29 -29 -29 -29 -29 -29 -29 -30 -30 -30 -30 -30 -30 -30 -30 -30 -31 -31 -32 -32 -33 -34 -34 -34 -35 -35 -36 -36 -36
-29 -29 -29 -29 -29 -29 -29 -29 -29 -29 -29 -29 -29 -29 -29 -29 -29 -29 -30 -30 -29 -29 -29 -30 -30 -30 -30 -30 -30 -30 -30 -30 -30 -30 -30 -30 -30 -30 -31 -31 -31 -32 -33 -33 -34 -34 -34 -34 -35 -35 -36 -36 -36 -36
-29 -29 -29 -30 -30 -29 -29 -29 -30 -30 -29 -29 -29 -29 -29 -30 -30 -30 -29 -29 -29 -29 -30 -30 -30 -30 -30 -30 -30 -30 -30 -30 -30 -31 -31 -31 -31 -31 -31 -32 -33 -34 -34 -34 -35 -35 -35 -35 -35 -36 -36 -36 -37 -37
-29 -29 -29 -29 -29 -29 -29 -29 -30 -30 -30 -30 -30 -30 -30 -30 -30 -30 -30 -30 -31 -31 -31 -31 -31 -31 -31 -31 -31 -31 -31 -31 -31 -31 -31 -31 -31 -32 -33 -33 -34 -35 -35 -35 -35 -35 -36 -36 -36 -36 -36 -37 -37 -37
-30 -29 -30 -30 -30 -30 -30 -30 -30 -30 -30 -30 -30 -30 -30 -31 -31 -31 -31 -31 -31 -31 -31 -31 -31 -31 -31 -31 -31 -31 -31 -31 -31 -32 -32 -32 -33 -33 -34 -35 -35 -35 -35 -35 -36 -36 -36 -36 -36 -36 -37 -37 -37 -37
-30 -30 -30 -30 -31 -31 -31 -31 -31 -31 -31 -31 -31 -31 -31 -31 -31 -31 -31 -32 -32 -32 -32 -32 -32 -32 -32 -32 -32 -32 -32 -32 -33 -33 -34 -34 -34 -35 -35 -35 -35 -35 -36 -36 -36 -36 -36 -36 -36 -37 -37 -37 -37 -37
-31 -31 -31 -31 -31 -31 -31 -31 -31 -31 -32 -32 -32 -32 -32 -32 -32 -32 -32 -32 -32 -32 -32 -32 -32 -32 -32 -33 -33 -33 -34 -34 -35 -35 -35 -35 -35 -36 -36 -36 -36 -36 -36 -36 -36 -36 -36 -37 -37 -37 -37 -37 -37 -37
-31 -32 -32 -32 -32 -32 -32 -32 -32 -32 -32 -32 -32 -32 -32 -32 -32 -32 -32 -32 -33 -33 -33 -33 -34 -34 -34 -34 -35 -35 -35 -36 -36 -36 -36 -36 -36 -37 -37 -37 -36 -36 -36 -36 -36 -36 -37 -37 -37 -37 -37 -37 -37 -38
-32 -32 -32 -32 -32 -32 -32 -32 -32 -32 -32 -32 -32 -33 -33 -33 -33 -33 -34 -34 -34 -34 -35 -35 -35 -35 -35 -36 -36 -36 -37 -37 -37 -37 -37 -37 -37 -37 -37 -37 -37 -37 -37 -37 -37 -37 -37 -37 -37 -37 -37 -37 -38 -38
Height
5629 5640 5649 5657 5666 5673 5680 5687 5694 5700 5707 5712 5716 5721 5724 5727 5730 5731 5737 5737 5736 5738 5740 5742 5743 5742 5741 5740 5737 5735 5731 5729 5724 5720 5715 5712 5707 5703 5697 5691 5686 5679 5672 5667 5657 5649 5642 5634 5626 5620 5612 5601 5592 5582
5613 5621 5632 5642 5651 5658 5666 5672 5680 5686 5694 5700 5704 5709 5712 5715 5717 5718 5722 5727 5725 5724 5725 5728 5728 5728 5729 5726 5723 5720 5718 5715 5711 5707 5703 5698 5694 5689 5685 5679 5674 5668 5662 5656 5647 5637 5629 5622 5615 5607 5599 5590 5581 5571
5595 5604 5616 5626 5636 5642 5652 5659 5664 5671 5679 5686 5691 5695 5699 5702 5704 5707 5709 5712 5713 5713 5714 5714 5715 5716 5714 5712 5709 5706 5704 5700 5696 5693 5689 5685 5681 5676 5672 5668 5661 5656 5650 5642 5632 5629 5619 5612 5603 5595 5587 5578 5570 5562
5579 5589 5597 5609 5619 5628 5636 5645 5651 5657 5663 5670 5676 5681 5685 5690 5693 5694 5696 5698 5698 5700 5699 5700 5703 5703 5702 5699 5694 5692 5690 5687 5684 5680 5677 5673 5668 5662 5659 5654 5649 5645 5636 5627 5620 5614 5607 5601 5592 5584 5575 5567 5558 5551
5563 5576 5582 5592 5603 5611 5620 5629 5636 5642 5648 5654 5660 5665 5670 5673 5678 5682 5685 5685 5686 5687 5687 5690 5692 5691 5689 5686 5681 5679 5675 5673 5669 5666 5663 5658 5653 5649 5645 5639 5639 5631 5623 5614 5609 5603 5595 5589 5580 5572 5564 5556 5549 5542
5548 5560 5568 5576 5587 5596 5604 5612 5620 5627 5634 5640 5644 5650 5655 5658 5661 5665 5667 5670 5670 5672 5674 5676 5679 5677 5674 5670 5668 5664 5661 5659 5656 5654 5650 5646 5642 5635 5629 5629 5626 5616 5608 5602 5596 5590 5583 5576 5568 5560 5553 5545 5538 5531
5534 5544 5551 5562 5573 5583 5590 5596 5604 5611 5618 5623 5629 5635 5639 5641 5645 5649 5653 5654 5654 5655 5656 5658 5660 5660 5658 5655 5653 5651 5649 5646 5642 5639 5636 5632 5628 5621 5617 5615 5607 5601 5595 5589 5583 5577 5571 5563 5556 5548 5541 5534 5528 5521
5515 5527 5535 5545 5558 5568 5574 5581 5588 5596 5602 5607 5611 5617 5623 5626 5629 5634 5637 5638 5638 5640 5641 5641 5644 5644 5641 5637 5635 5632 5630 5627 5626 5622 5620 5617 5611 5606 5605 5599 5593 5587 5581 5576 5570 5564 5557 5551 5544 5538 5531 5524 5517 5512
5498 5513 5520 5528 5538 5552 5560 5568 5575 5581 5586 5592 5598 5602 5605 5611 5615 5619 5621 5622 5623 5627 5626 5629 5629 5629 5626 5622 5618 5616 5613 5610 5609 5608 5604 5602 5601 5595 5588 5583 5578 5572 5569 5563 5557 5551 5546 5540 5534 5527 5521 5515 5509 5503
5486 5498 5508 5513 5522 5534 5544 5553 5557 5566 5572 5575 5583 5589 5592 5595 5597 5602 5603 5606 5608 5611 5612 5614 5617 5615 5610 5607 5602 5601 5597 5594 5592 5594 5588 5590 5588 5581 5574 5568 5563 5560 5556 5551 5546 5540 5534 5528 5522 5515 5510 5505 5500 5494
5472 5485 5497 5505 5510 5517 5526 5531 5539 5549 5554 5561 5566 5571 5573 5577 5581 5583 5585 5591 5593 5598 5600 5603 5602 5598 5593 5592 5588 5584 5580 5578 5578 5582 5576 5575 5577 5567 5560 5556 5553 5548 5544 5539 5534 5530 5525 5519 5513 5507 5502 5497 5491 5486
5458 5470 5483 5497 5501 5508 5512 5514 5523 5530 5537 5544 5550 5556 5557 5560 5562 5566 5572 5577 5582 5586 5589 5588 5584 5579 5578 5576 5572 5570 5569 5568 5567 5566 5564 5563 5560 5552 5549 5546 5542 5538 5533 5529 5524 5519 5514 5508 5503 5498 5493 5488 5483 5477
5450 5459 5469 5481 5492 5497 5502 5509 5512 5513 5518 5524 5532 5536 5538 5543 5549 5554 5565 5569 5570 5568 5568 5568 5566 5564 5563 5562 5558 5558 5555 5557 5555 5554 5551 5549 5544 5541 5540 5537 5533 5528 5523 5518 5514 5509 5504 5499 5495 5490 5485 5479 5473 5467
5443 5452 5461 5470 5479 5489 5496 5500 5504 5504 5507 5512 5515 5519 5524 5527 5535 5547 5552 5553 5553 5551 5549 5548 5547 5547 5547 5546 5544 5543 5542 5543 5543 5543 5540 5536 5534 5532 5529 5526 5523 5518 5514 5508 5503 5498 5495 5491 5486 5481 5476 5469 5463 5456
5437 5446 5455 5463 5474 5480 5487 5491 5492 5496 5500 5502 5503 5508 5515 5520 5525 5529 5533 5535 5536 5535 5535 5536 5535 5535 5535 5534 5534 5533 5532 5533 5533 5531 5528 5527 5525 5523 5520 5517 5514 5510 5505 5499 5495 5489 5486 5482 5477 5472 5466 5459 5452 5444
5434 5440 5447 5458 5467 5473 5479 5483 5484 5488 5489 5492 5496 5502 5509 5510 5513 5515 5518 5521 5522 5523 5524 5525 5525 5526 5527 5526 5528 5525 5524 5525 5523 5521 5520 5519 5517 5514 5513 5509 5505 5500 5494 5490 5486 5481 5478 5473 5468 5463 5457 5449 5440 5430
5428 5437 5444 5452 5458 5466 5471 5476 5477 5479 5481 5483 5493 5497 5498 5500 5501 5505 5506 5509 5511 5513 5515 5517 5516 5516 5519 5519 5518 5517 5517 5515 5513 5514 5512 5511 5510 5507 5503 5499 5494 5490 5485 5481 5477 5473 5469 5464 5458 5453 5445 5437 5427 5418
5430 5435 5441 5447 5454 5458 5463 5467 5470 5471 5475 5480 5485 5488 5489 5491 5493 5495 5497 5499 5501 5502 5504 5507 5509 5508 5511 5511 5510 5510 5508 5508 5506 5506 5506 5503 5501 5497 5493 5489 5485 5480 5476 5473 5469 5464 5459 5455 5449 5442 5434 5424 5416 5409
5429 5436 5440 5444 5448 5452 5456 5459 5463 5465 5470 5475 5477 5479 5481 5482 5484 5487 5489 5490 5491 5493 5496 5498 5499 5502 5502 5502 5502 5502 5501 5500 5499 5498 5496 5494 5490 5487 5483 5479 5475 5472 5468 5464 5460 5456 5451 5445 5438 5430 5422 5414 5407 5402
5428 5432 5436 5440 5444 5447 5450 5453 5457 5460 5463 5467 5469 5470 5472 5474 5476 5478 5480 5482 5483 5484 5487 5488 5490 5491 5492 5493 5492 5492 5492 5491 5490 5488 5486 5483 5480 5476 5473 5469 5467 5463 5459 5455 5451 5447 5441 5434 5427 5419 5412 5405 5400 5395
5427 5431 5435 5438 5440 5443 5446 5448 5450 5453 5456 5458 5461 5463 5465 5467 5469 5471 5472 5473 5475 5478 5480 5481 5482 5483 5483 5483 5483 5483 5482 5481 5479 5478 5476 5472 5469 5466 5464 5460 5457 5454 5450 5446 5442 5436 5430 5424 5417 5410 5404 5398 5393 5390
5427 5430 5432 5434 5436 5439 5441 5444 5447 5449 5451 5453 5455 5457 5459 5461 5462 5463 5464 5466 5468 5470 5471 5472 5473 5474 5474 5475 5474 5473 5472 5471 5469 5468 5465 5462 5458 5456 5453 5450 5448 5445 5441 5436 5431 5426 5420 5413 5407 5402 5396 5392 5388 5385
5423 5426 5429 5432 5434 5437 5440 5441 5444 5446 5447 5450 5451 5452 5453 5455 5456 5457 5458 5461 5462 5463 5463 5463 5463 5464 5464 5464 5464 5463 5462 5461 5459 5456 5453 5451 5448 5445 5443 5441 5438 5434 5430 5426 5421 5415 5410 5404 5399 5394 5390 5387 5384 5381
5423 5425 5427 5429 5431 5433 5437 5439 5440 5442 5444 5446 5447 5448 5450 5451 5452 5453 5453 5454 5455 5454 5454 5454 5454 5455 5456 5455 5454 5453 5452 5450 5447 5445 5443 5440 5438 5436 5433 5431 5427 5424 5420 5415 5410 5405 5400 5396 5392 5388 5385 5382 5379 5377
5422 5424 5425 5425 5428 5431 5434 5437 5438 5440 5441 5442 5443 5444 5445 5445 5446 5447 5448 5448 5447 5446 5446 5446 5446 5446 5446 5445 5444 5442 5439 5437 5436 5434 5432 5430 5428 5426 5423 5420 5417 5413 5409 5404 5400 5396 5393 5389 5386 5382 5379 5377 5375 5373
5420 5420 5422 5422 5423 5426 5430 5432 5434 5435 5435 5437 5438 5438 5439 5440 5440 5439 5439 5438 5438 5437 5437 5437 5436 5436 5434 5433 5431 5430 5428 5427 5426 5424 5422 5420 5418 5415 5412 5409 5405 5402 5398 5395 5392 5389 5386 5383 5380 5377 5374 5373 5371 5369
5419 5420 5421 5422 5423 5424 5424 5426 5428 5429 5429 5430 5431 5432 5432 5431 5431 5431 5430 5429 5429 5429 5428 5427 5426 5425 5424 5423 5422 5420 5419 5417 5415 5414 5412 5410 5407 5403 5400 5397 5394 5392 5389 5387 5385 5382 5380 5377 5375 5372 5370 5368 5366 5364
5416 5417 5418 5420 5420 5420 5421 5422 5423 5423 5423 5424 5424 5424 5424 5424 5424 5423 5422 5421 5421 5420 5419 5419 5418 5417 5415 5414 5412 5411 5409 5407 5405 5403 5400 5397 5394 5391 5388 5385 5384 5383 5382 5380 5378 5377 5375 5373 5371 5369 5367 5365 5363 5361
5415 5415 5416 5416 5416 5417 5417 5418 5418 5418 5418 5418 5418 5418 5418 5418 5417 5417 5417 5416 5415 5414 5412 5411 5410 5408 5406 5404 5402 5400 5398 5395 5392 5389 5386 5383 5381 5379 5376 5375 5375 5374 5374 5373 5372 5370 5369 5368 5366 5365 5363 5361 5359 5357
5415 5415 5415 5415 5415 5415 5416 5416 5416 5416 5415 5415 5415 5415 5414 5413 5412 5411 5410 5408 5407 5406 5404 5402 5400 5397 5395 5393 5390 5387 5384 5380 5377 5375 5372 5371 5369 5367 5366 5365 5365 5366 5365 5365 5364 5363 5362 5360 5359 5357 5355 5353 5351 5349
5415 5415 5414 5414 5414 5413 5413 5413 5412 5412 5412 5411 5411 5410 5409 5408 5406 5404 5402 5400 5398 5396 5393 5391 5388 5385 5381 5378 5375 5372 5369 5367 5365 5363 5362 5360 5358 5357 5356 5356 5356 5356 5356 5356 5355 5354 5353 5352 5350 5348 5346 5344 5342 5339
5413 5412 5412 5411 5411 5410 5410 5409 5408 5408 5407 5406 5405 5403 5402 5400 5398 5396 5393 5390 5387 5384 5380 5377 5373 5370 5367 5364 5362 5360 5358 5356 5355 5353 5352 5350 5349 5348 5347 5347 5347 5347 5347 5346 5345 5345 5343 5342 5340 5337 5335 5332 5330 5327
5411 5410 5409 5408 5407 5406 5406 5405 5403 5402 5400 5399 5397 5394 5392 5390 5387 5384 5381 5378 5375 5372 5369 5366 5363 5360 5357 5355 5352 5351 5349 5348 5346 5345 5344 5343 5342 5341 5340 5339 5338 5338 5337 5336 5335 5334 5333 5331 5328 5325 5323 5319 5316 5312
Wind_Speed
84 79 72 69 65 63 61 62 61 59 56 55 55 54 53 52 52 52 49 48 50 52 50 49 48 48 48 49 51 50 51 51 52 54 54 53 54 52 54 57 60 62 66 66 71 73 72 72 69 66 67 68 68 66
88 84 76 66 66 66 68 65 64 63 59 56 55 55 54 53 53 54 52 49 52 54 55 53 51 49 50 49 48 50 52 53 54 52 54 54 54 54 57 61 63 64 65 68 70 70 67 66 64 66 67 68 66 62
79 86 83 80 69 67 70 70 64 64 66 62 58 57 57 56 56 56 55 53 54 55 56 54 52 50 49 48 50 54 55 54 53 56 58 58 60 61 63 65 68 65 67 70 75 68 63 62 64 65 66 65 62 58
85 81 83 81 73 70 69 73 66 65 67 65 64 63 60 61 59 58 57 56 56 54 50 52 49 48 50 54 52 52 53 54 55 56 59 59 61 67 69 71 70 65 68 68 66 60 62 62 62 64 63 60 58 53
93 88 77 85 79 75 74 72 69 66 66 66 65 65 62 62 60 59 58 56 55 53 53 53 53 53 51 51 50 54 54 56 57 60 61 65 68 69 71 71 68 62 57 58 60 60 60 61 61 60 60 57 53 51
87 86 83 78 79 80 77 75 71 69 67 67 67 63 61 60 58 59 61 60 60 58 58 59 60 56 55 57 58 57 57 58 61 64 65 67 65 66 72 72 56 53 57 59 58 59 59 59 58 58 56 51 50 50
93 81 81 85 75 73 74 76 73 71 72 72 73 71 64 62 60 60 60 59 57 60 61 60 60 59 53 55 59 60 59 61 64 67 69 69 70 67 64 52 51 56 56 56 57 58 57 56 56 54 50 49 49 46
88 88 77 81 84 68 71 71 72 74 72 70 71 72 67 64 61 61 60 60 59 60 60 62 61 57 57 59 61 64 65 66 67 69 69 65 64 56 54 51 53 54 55 56 56 54 53 53 51 48 47 47 44 40
78 85 71 73 78 83 70 74 75 74 74 73 71 73 71 70 66 62 61 60 60 62 64 62 60 60 62 64 64 64 64 60 62 61 57 58 56 50 49 50 53 54 55 53 50 50 50 48 47 46 46 43 39 38
67 72 62 63 72 77 75 71 69 73 75 75 73 71 72 67 67 67 68 67 66 64 64 62 64 66 65 63 59 56 55 54 59 60 58 55 50 45 49 53 54 51 48 47 48 47 45 45 45 43 41 38 37 36
56 62 66 56 56 62 69 70 71 68 71 74 69 63 66 69 70 68 67 68 69 68 68 67 63 59 54 51 48 48 49 52 56 54 53 54 50 47 48 48 45 43 44 46 45 43 44 44 43 39 37 36 36 37
49 54 59 63 54 52 47 58 68 70 69 70 72 74 70 65 63 65 66 66 67 65 61 54 52 53 54 51 50 51 50 52 52 52 51 46 38 42 42 39 40 42 43 42 42 42 42 41 38 36 36 37 39 43
43 47 51 58 58 57 58 57 52 50 67 68 66 67 70 69 72 72 68 64 57 55 54 54 55 54 53 50 51 50 50 49 47 43 40 31 32 35 35 37 38 39 39 40 41 42 40 37 35 36 37 39 45 51
38 38 41 38 41 44 45 44 35 39 50 50 53 59 59 61 69 68 62 60 59 56 53 50 49 46 44 42 42 41 43 43 41 36 28 30 32 33 33 35 36 38 39 38 39 37 34 33 34 36 41 47 52 56
32 31 34 34 35 36 42 36 37 44 43 45 49 48 49 48 47 45 45 45 42 42 40 39 40 40 39 40 39 41 41 40 35 27 29 30 31 31 32 34 36 37 38 39 36 33 32 33 36 41 47 52 56 59
30 30 32 35 36 38 41 43 43 40 38 39 45 44 40 38 36 35 35 35 36 37 37 37 37 38 35 32 31 31 32 26 27 27 27 25 24 27 29 32 34 37 38 35 32 31 33 36 42 47 51 55 58 59
31 30 29 33 38 43 40 44 42 42 41 47 43 38 34 30 31 31 32 33 32 32 33 34 35 35 31 26 23 25 26 26 26 23 21 22 24 27 31 37 40 37 34 32 32 33 36 42 46 50 54 57 57 53
28 29 27 27 30 37 43 48 52 53 53 48 40 32 28 28 25 26 27 26 26 26 24 24 24 27 29 27 25 25 23 23 24 23 25 28 31 34 40 44 40 33 31 32 33 37 42 45 49 53 55 55 51 45
28 25 26 27 27 30 34 37 40 43 43 33 30 29 25 25 26 26 28 28 26 27 32 30 25 25 22 25 29 25 23 26 28 31 33 37 37 39 43 44 37 33 32 33 37 42 45 48 51 54 53 50 44 37
22 23 23 25 23 22 24 27 27 29 30 32 31 28 25 25 27 28 29 32 36 34 32 27 29 25 23 21 26 31 32 30 30 32 36 38 39 42 44 41 37 34 33 36 41 44 47 50 52 52 48 43 36 30
23 22 21 21 23 24 24 26 28 29 27 27 24 23 23 25 26 28 30 34 35 35 27 29 32 29 27 27 30 32 32 32 32 35 38 40 43 44 45 39 34 34 36 40 43 46 49 50 49 45 41 35 29 25
19 19 20 20 20 18 16 13 12 12 15 15 18 20 20 23 24 25 26 27 29 33 38 41 43 43 40 39 37 38 39 40 37 36 38 42 44 45 39 34 35 37 40 43 45 47 48 47 43 38 34 29 25 23
19 21 21 19 17 15 12 12 10 10 12 12 14 17 18 19 19 19 18 19 21 25 29 33 36 35 35 32 33 37 36 35 37 39 43 45 43 38 33 34 38 40 42 45 45 46 43 40 35 33 29 24 22 20
18 17 16 16 15 14 11 8 9 9 11 11 11 11 10 9 13 20 23 24 26 25 24 26 29 30 34 38 35 34 36 38 41 43 41 38 34 33 35 37 40 42 44 44 43 40 36 33 30 28 24 21 19 18
18 19 21 13 14 14 9 9 10 14 14 19 20 16 17 18 20 15 16 22 27 27 27 30 33 33 32 33 35 37 37 37 36 35 33 33 34 35 37 40 42 43 43 40 36 33 30 28 27 24 21 19 18 18
17 19 21 19 17 19 19 16 15 13 13 25 23 24 25 25 24 24 27 27 25 25 25 26 28 29 31 32 32 32 32 32 31 32 33 35 37 38 40 42 42 39 35 31 28 27 26 24 22 20 19 19 19 18
13 11 15 19 23 26 26 22 22 23 23 24 24 25 24 25 26 26 26 26 28 29 29 28 28 27 27 28 28 30 31 32 33 35 37 38 40 41 42 41 37 31 27 24 23 22 20 18 16 15 16 17 17 18
10 10 12 14 14 14 14 16 17 18 18 17 18 20 23 24 26 25 24 23 23 23 23 24 25 26 28 29 31 32 34 36 38 39 41 42 43 43 40 35 28 24 21 20 17 15 13 12 13 14 15 17 17 17
6 7 8 8 10 12 14 15 16 17 18 18 18 18 18 18 19 19 20 21 23 24 26 28 29 31 32 33 35 37 39 41 43 44 44 43 41 37 33 28 25 21 18 17 15 14 14 15 17 19 20 21 21 22
4 5 6 7 9 9 10 11 13 14 15 16 17 18 19 20 21 22 24 25 26 28 29 31 33 35 37 39 41 42 43 42 42 40 38 35 33 30 27 26 26 24 22 21 20 21 21 22 24 25 26 27 28 30
3 4 6 7 8 9 11 11 13 14 15 16 16 18 19 21 22 24 26 29 31 33 36 38 39 40 41 41 40 39 37 36 34 32 30 28 27 25 24 25 26 28 28 27 27 28 28 29 31 32 33 34 35 36
7 8 8 9 9 10 11 11 12 13 15 17 19 22 24 26 28 31 33 35 37 38 38 38 37 36 35 35 33 32 30 28 27 26 25 24 23 23 24 24 25 26 27 29 31 33 34 35 35 37 38 39 40 42
11 12 12 13 14 15 16 17 19 20 22 24 27 29 31 33 34 35 35 34 31 29 28 28 28 27 26 25 23 22 21 20 20 21 21 20 20 21 21 21 22 23 25 28 30 32 34 35 37 39 41 44 45 44
Wind_Direction
226 229 231 232 235 237 239 238 241 243 241 243 244 245 244 247 250 253 254 259 264 266 268 270 275 279 283 288 293 296 299 303 303 303 302 304 302 304 305 306 307 308 309 310 309 309 310 311 312 311 312 312 315 317
227 224 228 230 237 239 241 242 240 242 243 243 244 245 245 245 248 252 256 258 262 267 271 274 276 281 286 291 295 296 298 298 299 301 301 300 302 302 304 304 305 303 303 307 307 306 306 306 308 309 311 313 314 317
228 230 230 235 241 239 238 243 245 244 245 243 243 244 246 247 249 253 256 258 262 266 270 274 280 284 288 297 298 295 295 297 299 302 301 302 302 301 301 302 302 300 302 304 302 302 302 305 307 308 310 311 314 317
228 234 238 240 241 238 240 242 245 248 249 246 244 244 244 248 252 255 258 261 263 266 271 276 283 286 292 297 295 294 293 294 297 298 300 299 299 298 298 297 296 300 301 299 298 299 301 304 305 307 309 312 314 314
231 232 228 242 247 245 242 245 244 244 248 251 249 246 245 248 249 252 254 257 259 261 266 270 278 284 293 297 291 294 289 292 291 293 296 296 295 292 293 293 297 299 294 291 296 299 301 302 305 307 310 312 312 312
219 222 226 233 241 242 245 244 245 244 244 244 248 248 247 247 249 256 260 261 266 263 267 273 280 282 291 297 293 290 288 289 289 287 287 287 286 284 287 293 296 289 289 294 297 299 300 302 305 307 309 310 310 310
214 215 220 225 228 235 237 242 243 242 243 244 248 248 247 249 251 251 257 262 264 268 273 276 281 284 288 293 288 283 282 280 280 280 281 283 285 288 290 292 290 291 294 295 297 298 301 303 305 307 308 309 309 310
217 217 220 221 223 228 228 232 235 238 241 244 246 247 249 250 255 256 255 256 259 261 265 273 277 275 281 280 277 277 276 276 278 280 282 284 284 285 292 292 292 293 294 295 297 300 302 305 306 307 309 309 309 309
220 218 219 223 223 226 231 229 231 237 242 244 242 244 247 249 252 253 253 255 257 259 263 267 269 270 273 270 269 271 274 275 277 278 279 282 287 294 292 292 292 293 295 296 299 303 305 306 306 307 308 308 308 310
226 222 217 221 226 225 230 233 231 233 236 241 242 245 247 248 250 250 253 254 256 258 261 263 263 262 265 267 270 272 272 274 275 278 282 286 291 293 292 290 290 292 295 300 303 302 303 306 307 307 307 307 309 311
222 223 215 215 222 226 229 230 232 233 234 236 239 243 247 248 248 248 249 254 259 261 262 262 257 260 263 267 270 272 275 276 278 281 284 286 291 288 284 285 291 297 300 300 301 303 306 309 310 308 308 309 310 311
218 219 218 213 222 218 226 232 233 234 235 234 237 241 241 239 239 242 246 251 255 254 258 259 259 259 261 264 267 269 273 278 281 284 287 293 287 281 285 293 298 298 298 300 303 304 307 310 308 308 308 309 311 314
219 217 217 218 217 224 232 232 239 245 242 239 238 238 239 241 243 246 251 249 249 252 254 256 260 265 268 271 275 277 278 281 285 290 293 294 286 288 295 295 295 296 300 304 306 309 310 307 307 307 308 312 314 313
217 217 214 210 217 222 224 230 231 241 247 252 251 248 246 247 245 245 247 252 255 261 266 271 273 276 278 279 279 282 285 289 293 298 294 287 291 296 296 297 299 301 302 305 308 308 306 304 305 309 313 314 313 313
208 209 207 199 203 207 203 217 230 243 242 252 258 259 260 262 262 261 261 262 264 267 269 271 273 276 277 278 282 286 289 292 295 293 287 291 295 293 297 300 302 304 305 306 306 303 303 305 310 314 315 314 313 314
193 196 195 192 199 210 213 220 231 241 242 247 256 264 267 267 268 267 265 262 261 261 263 266 269 274 278 284 288 288 289 289 287 282 288 287 290 297 301 303 306 305 304 302 300 302 305 312 315 314 314 314 315 316
191 191 191 197 198 209 214 219 225 231 239 249 260 265 266 261 258 257 257 254 258 261 267 267 261 269 274 279 290 286 279 277 277 277 277 286 297 306 313 316 312 305 301 300 302 306 312 312 313 314 315 316 317 317
190 190 192 204 205 213 217 219 226 232 239 247 252 260 259 255 253 251 250 255 259 253 258 270 272 269 263 265 274 289 279 272 269 274 284 291 296 309 312 314 309 301 300 301 305 310 311 312 313 315 316 318 318 318
194 199 206 209 211 215 219 222 225 231 235 247 254 254 257 250 245 245 244 229 232 238 241 246 253 257 271 264 265 273 282 284 281 282 290 300 300 303 310 309 303 298 299 303 307 309 310 312 315 317 318 318 317 317
195 206 211 211 214 223 230 233 235 240 241 245 254 260 248 242 240 236 236 232 235 236 235 236 243 246 255 263 274 275 275 283 284 286 294 296 302 306 306 302 296 295 300 303 306 308 311 314 316 318 318 317 316 316
205 213 212 217 225 230 235 241 247 251 255 259 255 242 240 239 238 238 241 241 240 227 237 246 247 248 248 263 271 278 278 276 282 288 292 299 303 305 301 295 293 297 299 303 306 310 313 315 317 317 316 316 315 316
215 218 231 234 232 235 235 229 233 233 238 237 239 244 245 243 243 246 252 252 251 251 252 253 250 255 257 272 271 274 277 279 283 288 299 302 302 299 292 290 293 297 301 305 308 311 313 315 315 315 316 315 313 314
205 210 211 218 223 222 227 230 228 229 235 234 238 238 233 231 234 234 236 245 252 255 257 258 254 257 256 258 270 278 275 276 286 296 300 299 295 290 288 292 296 299 303 306 308 311 313 313 313 315 314 311 312 315
196 200 217 227 215 208 202 205 218 205 220 244 236 215 210 235 250 251 251 253 255 259 253 252 252 251 259 270 271 272 282 289 293 294 294 289 286 287 291 296 299 302 304 306 308 310 310 310 311 311 309 309 313 315
196 210 211 226 221 220 221 207 219 244 242 223 219 234 250 263 269 277 287 283 271 266 261 261 262 263 265 271 279 284 288 290 290 287 285 285 289 293 296 299 300 301 303 305 307 307 307 307 307 308 307 307 310 312
232 247 245 259 262 254 256 257 254 260 250 231 239 249 256 265 269 284 293 293 284 273 270 271 273 276 280 284 287 287 285 282 282 284 287 290 292 295 297 298 299 298 299 300 303 304 305 305 306 307 308 308 309 310
222 230 238 246 253 256 260 263 263 261 261 257 257 258 265 277 283 285 285 284 283 282 283 283 284 284 283 281 280 279 280 284 287 288 289 291 293 294 295 296 294 291 292 296 299 302 305 310 316 320 321 320 318 316
244 241 233 232 240 243 246 249 254 262 266 266 266 270 274 278 279 281 280 279 278 279 279 278 278 279 279 280 282 284 286 287 287 288 289 291 292 292 292 289 280 278 284 289 291 297 307 320 330 336 336 333 332 333
226 228 230 237 242 245 248 254 261 265 267 267 268 269 271 271 271 271 271 272 274 276 278 279 281 282 283 285 286 287 287 288 289 289 289 288 288 287 284 274 263 263 266 273 282 293 301 307 312 317 320 322 322 319
241 241 245 246 245 247 248 249 251 254 257 261 265 267 270 272 275 277 279 281 282 283 284 285 287 288 289 289 289 288 288 287 287 287 286 286 284 280 275 264 256 253 255 262 269 277 286 292 296 297 298 300 302 306
273 263 259 256 254 254 255 257 260 264 267 271 273 277 280 282 285 286 287 288 290 290 291 291 291 291 290 290 289 288 286 285 284 284 283 282 281 278 273 268 261 256 256 260 264 269 274 279 283 287 289 292 294 298
304 296 290 287 284 281 281 281 283 285 287 288 289 289 290 291 291 293 294 296 296 296 296 295 295 294 293 291 289 286 284 283 282 281 281 281 280 278 275 271 268 266 264 265 266 270 275 281 284 286 289 293 295 296
294 290 287 285 283 282 284 285 287 290 291 294 296 297 298 299 299 300 300 299 300 300 300 300 300 300 299 297 293 289 286 285 285 286 285 283 279 277 277 277 275 274 273 274 276 279 282 285 288 290 293 294 295 295